Regional Weather Roundup
Issued by NWS Newport/Morehead, NC

Current Version | Previous Version | Graphics & Text | Print | Product List | Glossary On
Versions: 1 2 3 4 5 6 7 8 9 10 11 12 13 14 15 16 17 18 19 20 21 22 23 24 25 26 27 28 29 30 31 32 33 34 35 36 37 38 39 40 41 42 43 44 45 46 47 48 49 50
000 ASUS42 KMHX 020122 RWRMHX WEATHER ROUNDUP FOR EASTERN NORTH CAROLINA NATIONAL WEATHER SERVICE NEWPORT/MOREHEAD CITY NC 900 PM EDT WED OCT 01 2014 NOTE: "FAIR" INDICATES FEW OR NO CLOUDS BELOW 12,000 FEET WITH NO SIGNIFICANT WEATHER AND/OR OBSTRUCTIONS TO VISIBILITY NCZ015>017-031-032-045>047-102-103-020200- NORTH COAST CITY SKY/WX TMP DP RH WIND PRES REMARKS EDENTON CLEAR 65 63 92 NE3 30.03R ELIZABETH CITY CLEAR 67 64 90 NE6 30.02R KITTY HAWK PTCLDY 69 63 82 NE7 30.01R MANTEO PTCLDY 68 63 84 N8 30.03R $$ NCZ045>047-081-094-103-104-020200- CENTRAL COAST CITY SKY/WX TMP DP RH WIND PRES REMARKS FRISCO PTCLDY 69 65 86 VRB6 30.01R SWANQUARTER N/A 66 N/A N/A NE3 29.97S $$ NCZ095-097-098-100-101-020200- SOUTHERN COAST CITY SKY/WX TMP DP RH WIND PRES REMARKS BEAUFORT PTCLDY 70 66 87 CALM 30.02R CEDAR ISLAND N/A 72 N/A N/A NE10 30.06S JACKSONVILLE PTCLDY 70 65 84 CALM 30.02R NEWPORT NOT AVBL PINEY ISLAND CLEAR 74 66 76 NE10 30.02R WILMINGTON CLEAR 69 66 90 CALM 30.02R $$ NCZ011>013-027>030-043-044-078>080-089-090>093-098-020200- COASTAL PLAIN CITY SKY/WX TMP DP RH WIND PRES REMARKS AHOSKIE PTCLDY 65 64 94 N3 30.04R CLINTON CLEAR 67 66 99 CALM 30.03R ELIZABETHTOWN CLEAR 69 67 92 CALM 30.03R GOLDSBORO CLEAR 67 67 98 CALM 30.00R GREENVILLE RAIN 64 64 100 CALM 30.03S HAVELOCK PTCLDY 69 65 86 CALM 30.03R KENANSVILLE CLEAR 64 63 96 CALM 30.04R KINSTON CLEAR 66 64 94 CALM 30.02R NEW BERN PTCLDY 68 64 87 CALM 30.03R RICHLANDS PTCLDY 64 63 94 CALM 30.03R ROANOKE RAPIDS NOT AVBL ROCKY MOUNT CLEAR 63 63 100 CALM 30.02R FOG WASHINGTON CLEAR 65 64 94 CALM 30.02S WHITEVILLE CLEAR 68 65 92 CALM 30.02R $$ AMZ130-135-150-152-154-156-158-170-250-252-270-ANZ085-086-088-633-658-670-020200- MARINE OBSERVATIONS STATION/POSITION TIME TEMP WIND PRES WAVE SWELL AIR SEA DIR/SP/G HT/PER HT/PER (UTC) (F) (DEG/KT/KT) (MB) (FT/S) (FT/S) CHESAPEAKE LIGHT 0100 69 50/ 12/ 12 1017.5 BUOY 44014 0100 69 71 10/ 16/ 17 1015.7 5/ 7 2/13 DUCK 0100 70 73 40/ 12/ 14 1015.9 2E DUCK NOT AVBL OREGON INLET 0100 69 74 30/ 11/ 16 1016.1 BUOY 44095 NOT AVBL 20E OREGON INLET NOT AVBL HATTERAS CG 0100 71 75 40/ 7/ 10 1016.7 DIAMOND BUOY 0100 71 10/ 16/ 17 1015.8 3/ 8 2/ 8 CAPE LOOKOUT 0100 74 50/ 10/ 12 1016.4 BEAUFORT LAB 0100 71 76 50/ 1/ 3 1016.1 30 SE NEW RIVER 0100 76 79 60/ 8/ 8 1015.9 2/ 7 2/ 7 5 SE WRIGHTSVILL NOT AVBL BUOY 41002 0026 80 80 30/ 14/ 16 1014.3 4/ 6 2/ 8 BUOY 41004 0100 77 81 60/ 8/ 10 1015.8 2/ 7 2/ 7 $$

USA.gov is the U.S. government's official web portal to all federal, state and local government web resources and services.